Temp
4 4 4 4 4 4 3 3 3 2 2 2 2 2 2 2 2 2 2 2 3 3 3 3 3 2 2 2 2 2 2 2 2 2 1 1 1 1 1 1 1 1
4 4 4 4 4 4 3 3 3 2 2 2 2 2 2 2 2 2 2 2 3 3 3 3 3 2 2 2 2 2 2 2 1 1 1 1 1 1 1 1 1 1
4 4 4 4 4 3 3 3 3 3 3 2 2 2 2 2 2 2 2 2 2 3 3 3 3 2 2 2 2 1 1 1 1 1 1 1 1 1 1 1 1 1
4 4 4 4 4 3 3 3 3 3 3 3 2 2 2 2 2 2 2 2 2 2 3 3 3 3 2 2 2 1 1 1 1 1 1 1 1 1 2 2 1 1
3 3 4 4 4 3 3 3 3 3 3 3 2 2 2 2 2 2 2 2 2 2 3 3 3 3 3 2 2 2 2 2 2 2 2 2 2 1 1 1 1 1
3 4 4 4 3 3 3 3 3 3 3 3 2 2 2 2 2 1 2 2 2 2 3 3 3 3 3 2 2 2 2 2 2 2 2 2 2 2 1 1 1 1
4 3 3 3 3 3 3 3 3 3 3 3 2 2 2 2 1 2 2 2 2 2 3 3 3 3 2 2 2 2 2 2 2 2 2 2 2 2 1 1 1 1
3 3 3 3 3 3 3 3 3 3 3 3 3 2 2 2 1 2 2 2 2 2 2 2 2 2 2 2 2 2 2 2 2 2 2 2 2 2 1 1 1 1
3 3 3 3 3 3 3 3 3 3 3 3 3 3 3 3 2 2 2 2 2 2 2 2 2 2 2 2 2 2 2 2 2 2 2 2 2 2 1 1 1 1
4 3 3 3 3 3 3 3 3 3 3 3 3 3 3 3 2 2 2 2 1 2 2 2 2 2 2 2 1 1 2 2 1 1 1 1 1 1 1 1 1 1
4 3 3 3 3 3 3 3 3 3 3 3 3 3 3 3 2 2 2 2 1 1 2 2 2 2 1 1 1 1 1 1 1 1 1 1 1 1 1 1 1 1
3 3 3 3 3 3 3 3 3 3 3 3 3 3 3 2 2 2 2 1 1 1 1 1 1 1 1 1 1 1 1 1 1 1 1 1 1 1 1 1 1 1
3 3 3 3 3 3 3 3 3 3 3 3 3 2 2 2 2 2 2 1 1 1 1 1 1 1 1 1 1 1 1 1 1 1 1 1 0 0 0 0 0 0
3 3 3 3 3 3 3 3 2 2 2 2 2 2 2 2 2 2 1 1 1 1 1 1 1 1 1 1 1 0 0 0 0 0 0 0 0 0 0 0 0 0
3 3 3 3 3 2 2 2 2 2 2 2 2 1 1 1 1 1 1 1 1 1 1 1 1 0 0 0 0 0 0 0 -0 -0 -0 -0 -0 -0 0 0 -0 -0
3 3 3 2 2 2 2 2 2 2 2 1 1 1 1 1 1 1 1 1 1 1 1 1 0 0 0 0 0 0 -0 -0 -0 -0 -0 -0 -0 -0 -0 -0 -0 -0
2 2 2 2 2 2 2 2 2 2 2 2 1 1 1 1 0 0 1 1 1 1 1 0 0 0 0 -0 -0 -0 -0 -0 -0 -0 -0 -1 -1 -1 -1 -1 -1 -1
2 2 2 2 2 2 2 2 2 2 2 2 1 1 1 0 0 -0 -0 0 0 0 0 0 -0 -0 -0 -0 -0 -0 -0 -0 -0 -0 -1 -1 -1 -1 -1 -1 -1 -1
1 1 1 1 1 1 1 2 2 2 2 2 2 1 1 1 0 -0 -0 -0 -0 -0 -0 -1 -1 -1 -1 -0 -0 -1 -1 -1 -1 -1 -1 -1 -1 -1 -1 -1 -1 -1
0 0 1 1 1 1 1 1 1 1 1 1 1 1 1 1 0 0 -0 -0 -1 -1 -1 -1 -1 -1 -1 -0 -0 -1 -1 -1 -1 -1 -1 -1 -1 -1 -1 -1 -1 -1
0 0 0 -0 -0 -0 -0 0 -0 -0 -0 -0 -0 0 0 0 0 0 0 0 -0 -0 -0 -0 -0 -1 -1 -1 -1 -1 -1 -1 -1 -1 -1 -1 -1 -1 -1 -1 -1 -1
0 0 -0 -0 -1 -1 -1 -1 -1 -1 -0 -0 -0 0 0 0 0 0 0 0 0 0 0 0 -0 -0 -1 -1 -1 -1 -1 -1 -1 -1 -1 -1 -2 -2 -2 -2 -2 -1
-1 -1 -1 -1 -1 -1 -1 -1 -1 -1 -0 -0 -0 -0 0 0 0 0 0 0 0 0 0 0 0 -0 -0 -0 -1 -1 -1 -1 -1 -1 -1 -1 -2 -2 -2 -2 -2 -2
-1 -1 -1 -1 -1 -1 -1 -1 -1 -1 -1 -1 -0 -0 -0 -0 -0 0 0 -0 0 0 0 -0 -0 -0 -1 -1 -1 -1 -1 -1 -1 -1 -1 -1 -2 -2 -2 -2 -2 -1
-2 -2 -2 -2 -2 -2 -1 -1 -1 -1 -1 -1 -1 -1 -1 -1 -1 -1 -1 -1 -0 -0 -1 -1 -1 -1 -1 -1 -1 -1 -1 -1 -1 -1 -1 -1 -2 -2 -2 -2 -1 -1
-2 -2 -2 -2 -2 -2 -2 -2 -2 -1 -1 -1 -1 -1 -1 -1 -1 -1 -1 -1 -1 -1 -1 -1 -1 -1 -1 -1 -1 -1 -1 -1 -1 -1 -1 -2 -2 -2 -2 -2 -2 -2
Height
3129 3131 3131 3132 3133 3134 3134 3134 3134 3135 3135 3136 3136 3136 3136 3136 3136 3135 3135 3136 3136 3136 3136 3136 3137 3138 3139 3140 3140 3141 3141 3142 3144 3145 3145 3145 3146 3147 3147 3148 3149 3150
3128 3129 3131 3131 3132 3133 3133 3133 3133 3134 3134 3135 3135 3135 3135 3135 3134 3135 3135 3135 3135 3135 3136 3136 3137 3137 3138 3140 3141 3141 3142 3142 3143 3144 3145 3145 3146 3146 3147 3148 3148 3149
3127 3128 3130 3130 3131 3132 3132 3132 3132 3133 3133 3134 3134 3134 3133 3133 3133 3134 3134 3134 3134 3135 3135 3136 3136 3137 3138 3139 3140 3141 3142 3143 3144 3144 3145 3146 3146 3147 3147 3148 3148 3149
3126 3128 3129 3129 3130 3130 3130 3131 3131 3131 3131 3132 3132 3132 3132 3132 3132 3133 3133 3133 3134 3134 3135 3136 3136 3137 3137 3139 3140 3141 3142 3143 3144 3144 3145 3146 3146 3147 3148 3148 3149 3149
3126 3127 3128 3128 3129 3129 3129 3130 3130 3130 3130 3131 3131 3131 3130 3131 3131 3132 3132 3132 3133 3134 3135 3136 3136 3137 3137 3138 3139 3141 3142 3143 3144 3144 3145 3146 3146 3147 3148 3149 3149 3150
3125 3125 3126 3127 3127 3128 3128 3129 3129 3129 3129 3129 3129 3129 3129 3129 3130 3131 3131 3132 3133 3134 3135 3136 3137 3137 3138 3138 3139 3140 3141 3142 3143 3144 3145 3146 3147 3147 3148 3149 3150 3150
3123 3124 3125 3126 3126 3127 3127 3128 3128 3128 3128 3128 3128 3127 3127 3128 3128 3129 3130 3131 3133 3134 3135 3136 3137 3138 3138 3139 3140 3141 3142 3143 3144 3145 3146 3146 3147 3148 3149 3149 3150 3151
3122 3123 3124 3125 3125 3126 3126 3126 3127 3127 3127 3126 3126 3126 3126 3126 3127 3128 3130 3131 3132 3134 3135 3136 3137 3138 3139 3140 3141 3141 3142 3143 3144 3145 3146 3147 3148 3148 3149 3150 3150 3151
3121 3122 3123 3124 3125 3125 3125 3126 3126 3126 3126 3125 3125 3125 3124 3125 3126 3127 3129 3130 3132 3134 3135 3136 3137 3138 3139 3140 3141 3142 3143 3144 3145 3146 3147 3147 3148 3149 3149 3150 3150 3151
3120 3121 3122 3123 3124 3124 3124 3125 3125 3125 3124 3124 3124 3124 3124 3124 3125 3127 3129 3130 3133 3134 3135 3136 3137 3138 3139 3140 3141 3142 3143 3144 3145 3146 3147 3147 3148 3149 3149 3150 3150 3150
3119 3120 3121 3122 3122 3123 3123 3123 3123 3124 3123 3123 3124 3124 3124 3125 3126 3127 3129 3130 3133 3134 3135 3137 3137 3138 3139 3140 3141 3142 3143 3144 3145 3145 3146 3147 3147 3148 3148 3149 3149 3150
3119 3119 3120 3121 3121 3122 3122 3122 3122 3122 3123 3123 3123 3124 3124 3125 3126 3127 3129 3130 3132 3134 3135 3136 3137 3138 3139 3140 3141 3142 3142 3143 3144 3145 3146 3146 3146 3147 3147 3147 3148 3148
3118 3118 3119 3120 3120 3121 3121 3121 3121 3121 3122 3123 3123 3124 3124 3125 3126 3127 3129 3130 3132 3133 3134 3135 3136 3137 3138 3139 3140 3141 3142 3142 3143 3144 3144 3145 3145 3145 3145 3146 3146 3146
3117 3117 3118 3118 3119 3119 3120 3120 3120 3121 3121 3122 3122 3123 3124 3125 3126 3127 3128 3129 3131 3132 3133 3134 3135 3135 3136 3138 3139 3139 3140 3141 3142 3143 3143 3143 3144 3143 3143 3144 3145 3146
3115 3116 3116 3117 3118 3118 3119 3119 3119 3120 3120 3121 3121 3122 3123 3124 3125 3126 3128 3129 3129 3130 3131 3132 3133 3134 3135 3136 3137 3138 3139 3140 3141 3141 3141 3142 3142 3141 3141 3142 3143 3144
3113 3114 3115 3116 3117 3117 3118 3118 3119 3119 3120 3120 3121 3121 3122 3124 3124 3125 3127 3127 3128 3129 3129 3130 3131 3132 3133 3135 3136 3137 3138 3139 3139 3139 3139 3139 3140 3140 3140 3140 3141 3142
3111 3113 3114 3115 3116 3116 3117 3118 3118 3119 3120 3120 3120 3121 3121 3122 3123 3124 3125 3126 3127 3127 3127 3128 3129 3130 3131 3133 3134 3135 3136 3137 3138 3137 3137 3137 3137 3138 3138 3138 3139 3139
3110 3111 3113 3114 3115 3115 3116 3117 3118 3118 3119 3119 3120 3120 3121 3121 3122 3123 3123 3124 3125 3125 3126 3127 3126 3127 3130 3132 3133 3134 3134 3135 3135 3135 3135 3135 3134 3135 3135 3134 3135 3135
3108 3110 3111 3112 3113 3115 3115 3116 3117 3117 3118 3118 3119 3120 3120 3120 3121 3121 3122 3122 3123 3124 3125 3124 3123 3125 3128 3130 3131 3131 3131 3131 3132 3132 3133 3132 3131 3131 3131 3130 3130 3131
3106 3108 3110 3111 3112 3113 3114 3114 3115 3116 3117 3117 3117 3118 3118 3118 3118 3119 3120 3120 3121 3121 3121 3120 3122 3124 3126 3127 3128 3128 3128 3128 3128 3128 3128 3128 3128 3128 3126 3126 3126 3126
3104 3105 3107 3109 3110 3110 3111 3112 3112 3112 3113 3113 3114 3114 3115 3115 3115 3116 3117 3118 3117 3117 3117 3118 3119 3121 3123 3124 3124 3125 3124 3123 3123 3123 3123 3123 3124 3123 3122 3123 3122 3121
3102 3103 3104 3106 3107 3108 3109 3109 3109 3110 3110 3110 3111 3111 3112 3112 3113 3114 3115 3115 3115 3115 3115 3115 3115 3117 3119 3120 3120 3120 3120 3119 3119 3118 3117 3117 3118 3118 3118 3118 3118 3117
3102 3103 3104 3105 3105 3106 3107 3107 3108 3108 3108 3108 3108 3109 3109 3110 3110 3110 3111 3112 3112 3112 3112 3112 3112 3113 3114 3116 3116 3116 3115 3115 3115 3114 3113 3112 3111 3112 3112 3113 3112 3113
3101 3102 3103 3103 3104 3105 3105 3106 3106 3107 3106 3106 3106 3106 3106 3106 3106 3107 3107 3108 3108 3108 3108 3108 3107 3108 3109 3110 3111 3111 3111 3110 3110 3110 3110 3108 3106 3106 3107 3107 3107 3107
3099 3099 3100 3100 3102 3102 3103 3103 3103 3104 3104 3103 3103 3103 3102 3102 3102 3102 3102 3102 3103 3103 3103 3103 3103 3103 3104 3105 3106 3106 3106 3106 3105 3104 3105 3104 3102 3102 3102 3102 3102 3102
3095 3096 3096 3097 3098 3099 3099 3099 3099 3099 3099 3099 3098 3098 3098 3098 3098 3097 3097 3097 3097 3097 3098 3098 3099 3099 3099 3100 3101 3101 3101 3101 3099 3098 3099 3099 3098 3097 3097 3097 3098 3097
Wind_Speed
19 18 17 16 13 12 12 13 14 14 14 14 12 9 9 10 11 11 12 14 14 12 9 5 4 6 7 7 7 7 7 7 8 9 9 9 9 10 12 11 11 11
19 19 18 16 13 11 13 14 14 15 15 13 12 11 10 9 8 8 10 12 13 12 9 6 5 5 6 6 8 8 8 8 8 8 8 8 9 10 11 11 11 12
17 16 15 14 12 11 13 14 16 17 16 14 13 12 11 10 8 8 9 10 12 11 8 6 4 4 5 5 7 8 7 7 7 7 8 9 10 11 11 11 11 11
15 13 13 12 11 12 13 15 16 16 15 13 13 13 14 13 12 12 10 9 10 9 8 6 4 4 5 6 7 8 7 8 8 8 9 10 10 10 10 10 10 10
14 13 13 13 12 13 14 14 14 13 12 12 12 14 15 14 14 12 9 6 7 7 6 5 4 4 5 6 7 8 8 8 9 9 10 10 10 11 11 11 11 12
14 14 13 12 13 14 14 14 13 13 13 13 13 14 15 15 13 9 6 4 5 6 5 4 4 4 4 5 7 8 8 9 9 10 10 11 11 11 11 12 11 11
14 14 14 14 14 14 13 12 12 12 12 12 13 15 15 14 10 7 7 5 5 6 5 4 4 4 4 5 6 7 7 8 9 9 10 10 10 10 10 10 10 9
14 14 14 13 12 11 10 10 10 9 10 11 13 14 14 13 7 10 10 7 7 7 6 6 5 5 5 5 6 6 6 6 7 8 9 9 9 9 8 8 7 6
12 11 11 10 8 8 8 8 8 8 8 9 11 11 12 11 6 13 12 9 9 9 8 8 7 7 6 6 6 6 6 5 5 6 7 7 6 6 5 4 4 3
11 10 9 7 6 7 8 7 7 7 8 8 10 9 9 6 6 14 13 11 11 11 10 9 9 8 7 7 7 7 6 5 5 6 5 4 4 3 3 3 3 4
11 10 8 7 8 8 8 8 7 7 7 8 8 7 6 3 8 13 12 11 12 12 12 11 10 9 9 9 9 8 7 6 7 7 5 5 6 6 6 7 7 7
11 10 9 9 10 9 8 8 7 7 7 7 6 6 6 5 9 12 12 12 13 14 14 13 12 12 12 12 11 11 10 9 9 10 9 9 10 9 10 11 11 12
12 11 12 11 10 9 9 8 7 7 7 6 6 6 7 8 10 12 13 14 16 17 17 16 16 16 16 15 14 14 14 13 13 12 13 13 13 13 14 14 14 14
12 12 12 12 10 9 9 8 8 7 7 7 6 6 8 10 12 13 14 16 17 18 19 20 19 19 20 19 18 18 18 17 16 15 16 17 17 18 19 18 16 16
13 14 13 12 11 9 8 8 8 7 8 8 8 7 9 11 13 15 16 18 20 20 22 23 22 23 23 22 22 22 21 20 19 19 20 21 21 22 22 21 19 19
14 14 14 12 11 10 9 9 9 9 9 10 9 9 10 12 14 16 18 20 22 23 24 25 26 26 26 26 26 25 25 24 23 24 25 25 24 25 25 25 24 23
15 15 15 14 13 12 11 10 11 11 12 12 12 12 12 14 15 17 19 20 22 24 27 28 29 29 29 28 28 28 28 27 27 27 28 29 28 28 28 28 28 27
16 16 16 15 15 15 14 12 12 12 14 14 15 15 16 16 17 19 21 22 22 23 26 29 31 32 32 31 30 31 31 31 31 31 31 32 33 33 33 33 33 32
16 17 17 17 17 17 16 15 14 14 15 16 17 18 19 19 19 20 21 22 23 24 27 30 31 31 31 32 33 34 35 35 34 34 34 35 36 37 37 39 38 37
18 18 18 18 18 18 17 17 16 15 16 16 17 18 18 17 18 19 19 20 22 26 30 32 32 31 32 32 32 33 35 37 38 38 38 38 38 39 41 42 41 41
21 20 19 17 16 17 16 15 15 14 14 14 14 14 14 15 17 17 18 19 21 24 27 28 30 31 31 32 32 33 35 38 40 41 42 41 41 42 43 43 43 45
21 20 19 17 16 17 16 16 16 15 15 15 16 16 17 18 19 19 19 21 23 24 24 25 27 27 26 27 30 32 34 36 37 39 41 42 44 45 45 44 45 46
18 18 18 17 17 18 19 19 19 18 18 19 19 21 22 23 23 24 24 24 25 26 27 27 28 27 26 25 26 28 30 32 33 34 34 37 42 45 45 45 47 46
19 19 19 19 19 20 21 22 21 20 21 22 23 25 26 26 28 29 28 28 29 30 30 29 29 29 29 28 27 28 30 31 31 31 31 34 38 41 41 43 44 44
22 22 22 21 21 22 23 24 24 24 25 26 27 28 29 29 31 32 32 32 32 32 31 31 30 31 31 31 30 30 31 31 33 33 32 33 36 37 39 41 42 43
22 23 23 23 24 25 26 27 28 29 29 31 31 32 33 33 33 34 34 34 34 33 33 33 33 33 33 32 32 32 32 33 35 36 34 35 36 37 39 41 40 40
Wind_Direction
243 247 256 266 273 286 297 304 309 310 312 309 302 311 323 326 334 336 336 337 329 318 306 285 240 212 211 213 212 213 216 210 202 202 197 193 190 187 190 191 189 193
244 248 256 264 273 284 291 295 300 302 305 303 295 299 309 313 323 325 329 333 323 310 297 284 260 229 220 215 219 223 224 221 211 202 196 191 186 183 185 184 179 181
244 250 257 264 275 284 288 292 293 295 297 297 290 286 292 294 294 303 316 325 316 300 287 279 261 231 217 208 216 221 220 222 214 198 189 183 181 179 179 179 175 173
241 249 255 263 275 281 289 292 291 291 294 297 288 279 283 283 285 297 308 313 306 291 278 270 249 223 209 196 204 214 215 216 209 194 186 181 177 175 172 168 160 154
237 244 249 260 271 280 288 290 288 289 292 296 290 282 282 280 284 296 297 293 290 275 260 251 231 213 201 189 194 202 203 201 193 184 180 175 168 163 155 147 143 139
232 238 244 257 269 277 284 286 285 287 292 298 296 290 286 285 288 285 258 254 264 248 236 229 213 196 188 183 186 190 187 183 179 174 172 167 163 158 148 141 139 136
226 237 248 258 265 273 279 281 282 287 296 302 301 296 292 291 283 236 210 219 226 223 213 202 194 186 183 180 181 183 180 181 180 175 171 166 161 154 145 142 139 136
226 240 249 253 258 266 271 276 282 293 304 308 306 300 296 297 262 197 192 198 209 217 208 195 192 185 184 181 179 180 180 184 183 177 171 165 160 154 150 150 147 143
223 232 237 240 250 259 265 275 287 300 310 312 310 304 302 303 234 187 187 191 204 218 211 202 199 192 186 183 180 178 178 177 175 174 172 169 170 170 171 171 167 165
215 221 228 234 243 252 262 276 290 301 311 316 313 307 306 304 193 182 187 190 204 221 219 211 207 201 197 194 192 191 191 187 186 191 193 203 220 227 233 237 221 218
212 217 226 237 243 249 261 275 289 304 312 314 311 303 299 267 182 185 192 195 207 223 227 224 218 214 214 212 209 211 214 217 218 223 233 249 261 263 260 262 259 254
208 217 228 237 243 249 260 272 286 300 307 306 302 295 280 237 198 198 201 202 211 223 230 231 228 227 227 227 227 228 231 235 237 243 251 256 263 266 262 262 264 265
212 223 230 233 237 245 253 263 274 282 289 292 291 283 267 245 224 216 213 211 216 224 231 233 233 234 235 236 237 237 240 243 245 250 255 260 266 269 266 264 263 268
216 222 224 226 229 236 243 252 263 270 274 278 279 271 260 252 243 236 230 225 224 228 233 236 237 238 241 242 243 243 244 246 250 253 255 260 265 267 268 269 271 277
218 218 219 222 225 230 241 253 265 271 270 269 268 265 261 256 253 251 246 239 235 236 238 240 241 242 244 246 247 248 249 250 252 253 255 259 263 267 272 274 275 278
222 223 224 228 233 238 247 261 271 274 272 270 268 266 262 257 255 255 251 246 244 244 245 245 245 245 246 248 249 251 254 255 256 257 261 264 265 268 272 272 272 274
224 229 232 234 239 243 247 255 263 267 267 268 266 263 261 258 256 255 254 252 250 248 248 249 249 248 247 248 250 253 256 258 259 261 265 268 268 270 272 272 273 274
222 229 234 237 242 246 249 254 259 262 264 264 264 264 262 259 257 257 257 258 258 255 255 255 254 252 250 250 252 255 257 259 260 262 265 267 270 273 275 275 275 274
222 228 231 236 242 244 246 251 254 257 258 258 258 260 261 259 258 258 257 260 262 262 262 260 257 255 255 255 255 256 258 260 261 262 263 266 269 273 275 275 275 275
223 229 230 234 239 240 240 242 242 241 243 245 247 251 256 260 263 265 264 263 262 260 262 264 263 264 264 261 258 259 262 264 265 265 264 265 267 269 272 274 276 276
223 227 229 231 236 239 241 243 244 244 245 248 250 252 258 263 268 272 272 269 267 265 267 271 271 270 268 263 262 265 269 270 271 271 270 268 267 268 269 271 273 275
230 231 232 233 234 237 240 241 242 243 244 249 253 256 260 263 268 274 275 274 274 274 277 279 277 274 268 262 261 264 267 270 272 274 273 271 269 267 267 267 268 271
234 236 237 239 240 242 243 241 239 240 243 249 256 261 264 266 270 275 277 277 276 277 279 281 279 276 270 263 258 257 260 264 267 269 271 271 269 268 267 267 267 269
236 243 246 246 248 251 251 250 250 251 255 260 265 267 270 272 274 277 279 278 277 276 277 277 276 275 272 267 264 259 258 260 263 265 266 267 268 268 267 266 267 268
249 257 260 260 261 260 259 259 260 260 261 264 266 268 271 273 276 278 279 278 278 278 276 273 271 270 269 268 268 265 262 262 263 264 265 266 267 269 268 265 264 266
263 266 267 268 267 265 264 264 263 263 264 265 266 268 270 272 273 274 275 275 277 276 274 270 268 267 267 267 266 265 265 265 264 263 263 264 265 267 266 264 263 266